Location: Wapato
(46.4478°N, 120.4212°W)
Time: 01:24:47
(UTC+00:00)

Explorer 11/Cluster Stage 4 - All Passes

Search period start: 14 May 2026 00:00
Search period end: 24 May 2026 00:00
Orbit: 463 x 1174 km, 28.8° (Epoch: 13 May)

Date Brightness Start Highest point End Pass type
(mag) Time Alt. Az. Time Alt. Az. Time Alt. Az.
14 May - 06:49:00 10° S 06:49:53 10° S 06:50:46 10° SSE night (unlit)
14 May - 08:34:43 10° SSW 08:36:26 11° S 08:38:04 10° SSE night (unlit)
15 May - 06:23:05 10° S 06:25:06 11° S 06:27:03 10° SSE night (unlit)
15 May - 08:09:15 10° SSW 08:11:42 13° S 08:13:59 10° SSE night (unlit)
16 May - 05:57:34 10° SSW 06:00:18 13° S 06:02:52 10° SSE visible
16 May - 07:43:55 10° SW 07:46:57 14° S 07:49:46 10° SSE night (unlit)
17 May - 05:32:10 10° SSW 05:35:27 14° S 05:38:31 10° SE visible
17 May - 07:18:37 10° SW 07:22:09 15° S 07:25:26 10° SSE visible
18 May - 05:06:52 10° SSW 05:10:34 14° S 05:14:03 10° SE visible
18 May - 06:53:21 10° SW 06:57:20 16° S 07:01:00 10° SSE visible
19 May - 04:41:38 10° SSW 04:45:38 15° S 04:49:29 10° SE visible
19 May - 06:28:07 10° SW 06:32:28 17° S 06:36:30 10° SSE visible
19 May - 08:17:26 10° SW 08:19:01 11° SSW 08:20:32 10° S night (unlit)
20 May - 04:16:27 10° SSW 04:20:42 16° SSE 04:24:49 10° SE visible
20 May - 06:02:55 10° SW 06:07:34 18° S 06:11:55 10° SE visible
20 May - 07:51:54 10° SW 07:54:11 12° SSW 07:56:22 10° S visible
21 May - 03:51:20 10° SSW 03:55:45 16° SSE 04:00:04 10° SE daylight
21 May - 05:37:45 10° SW 05:42:39 19° S 05:47:16 10° SE visible
21 May - 07:26:31 10° SW 07:29:19 13° SSW 07:31:59 10° S visible
22 May - 03:26:17 10° SSW 03:30:47 17° SSE 03:35:15 10° SE daylight
22 May - 05:12:37 10° SW 05:17:42 19° S 05:22:33 10° SE visible
22 May - 07:01:14 10° SW 07:04:26 13° SSW 07:07:29 10° S visible
23 May - 03:01:18 10° SSW 03:05:49 17° SSE 03:10:21 10° SE daylight
23 May - 04:47:33 10° SW 04:52:44 20° S 04:57:46 10° SE visible
23 May - 06:36:00 10° SW 06:39:31 14° SSW 06:42:53 10° S visible
